Other Surface Observations
Issued by NWS Tucson, AZ

Home | Current Version | Previous Version | Text Only | Print | Product List | Glossary On
Versions: 1 2 3 4 5 6 7 8 9 10 11 12 13 14 15 16 17 18 19 20 21 22 23 24 25 26 27 28 29 30 31 32 33 34 35 36 37 38 39 40 41 42 43 44 45 46 47 48 49 50
897
SXUS55 KTWC 232215
OSOTWC

WEATHER ROUNDUP FOR SOUTHEAST ARIZONA
NATIONAL WEATHER SERVICE TUCSON AZ
315 PM MST MON APR 23 2018

AZZ504>506-514-232315-
LOCATION       SKY/WX    TMP DP  RH WIND       PRES   REMARKS
TUCSON         SUNNY     90  19   7 E9        29.96F
DAVIS-MONTHAN  NOT AVBL
CHILDRENS PARK N/A      N/A N/A   8 NW1               PIMA CO DEQ
ALVERNON/22ND  N/A       90 N/A N/A NW4               PIMA CO DEQ
CHERRY/GLENN   N/A      N/A N/A N/A N/A               PIMA CO DEQ
TANGERINE      N/A       91 N/A N/A W3                PIMA CO DEQ
CONTL RANCH    N/A       91  22   8 W5                PIMA CO DEQ
GRANT/1ST      N/A       89  20   8 S13               PIMA CO DEQ
CRAYCROFT/22ND N/A       90  21   8 W5                PIMA CO DEQ
GOLFLINKS/KOLB N/A      N/A N/A N/A N/A               PIMA CO DEQ
AJO/12TH       N/A       90  26  10 S5                PIMA CO DEQ
FAIRGROUNDS    N/A       88 N/A N/A NW8               PIMA CO DEQ
SAGUARO        N/A       93  17   6 SW7G12            *SABINO CYN
SAN CARLOS     N/A       92  20   7 W4G12             *SAN CARLOS
GREEN VALLEY   N/A       89  23   9 SE2               PIMA CO DEQ
HORSE CAMP CYN N/A       85  20   9 W11G20            *ARAVAIPA CYN
RINCON MTNS    N/A       71  19  14 W3G10             *NR MANNING CAMP
$$

AZZ509>511-232315-
LOCATION       SKY/WX    TMP DP  RH WIND       PRES   REMARKS
SAFFORD        SUNNY     90  19   7 VRB6      29.95F
STRAY HORSE    N/A       68  17  14 SW3G18            *
TRAIL CABIN    N/A       78  21  12 NW6G15            *N OF GRANVILLE
BLACK HILLS    NOT AVBL
DRY LAKE       N/A       73  19  13 W7G12             *NATANES MTNS
NOON CREEK     N/A       84  24  11 NE6G11            *PINALENO MTNS
COLUMBINE      N/A       60  17  19 SW6G15            *PINALENO MTNS
GUTHRIE        N/A       75  21  13 SW8G21            *SW OF GUTHRIE
$$

AZZ502-503-513-232315-
LOCATION       SKY/WX    TMP DP  RH WIND       PRES   REMARKS
NOGALES        SUNNY     88  14   6 W6        30.02F
SELLS          N/A       94  18   6 NE4G14            *
SASABE         N/A       91  22   8 W5G15             *ALTAR VLY
HOPKINS        N/A       79  18  10 W8G17             *SANTA RITA MTNS
CARR CYN       N/A       86  21   9 N3G10             *W OF HEREFORD
$$

AZZ507-508-512-232315-
LOCATION       SKY/WX    TMP DP  RH WIND       PRES   REMARKS
SIERRA VISTA   SUNNY     85  14   7 SW10G17   30.07F
DOUGLAS        SUNNY     85  16   7 SW13G18   30.03F
EMPIRE MTNS    NOT AVBL
MULESHOE RANCH N/A       85  20   9 NW6G12            *PRESERVE
HEADQUARTERS   N/A       83  19   9 NW6G14            *CHIRICAHUA MTNS
$$

.............................NOTES.............................
THIS IS AN AUTOMATED COLLECTIVE WITH MINIMAL QUALITY CONTROL.
PIMA CO DEQ SITES HAVE NONSTANDARD WIND SENSOR HEIGHTS.
PIMA CO DEQ SITES DO NOT REPORT WIND GUSTS.
* INDICATES WIND SENSORS LOCATED AT 20 FEET INSTEAD OF 33 FEET.
..............................KEY..............................
SKY/WX - SKY CONDITION/WEATHER
TMP    - TEMPERATURE IN FAHRENHEIT
DP     - DEWPOINT IN FAHRENHEIT
RH     - RELATIVE HUMIDITY IN PERCENT
WIND   - DIRECTION AND SPEED IN MILES PER HOUR (MPH)
VRB    - VARIABLE WIND DIRECTION
PRES   - MEAN SEA LEVEL PRESSURE IN INCHES OF MERCURY
         F - FALLING PRESSURE   R - RISING PRESSURE
         S - STEADY PRESSURE
VSB    - VISIBILITY IN MILES
HX     - HEAT INDEX IN FAHRENHEIT
WCI    - WIND CHILL INDEX IN FAHRENHEIT
N/A    - NOT AVAILABLE
AFB    - AIR FORCE BASE
         DAVIS-MONTHAN IS DAVIS-MONTHAN AIR FORCE BASE
CYN    - CANYON
MTNS   - MOUNTAINS
NCA    - NATIONAL CONSERVATION AREA
NR     - NEAR
VLY    - VALLEY
CONTL  - CONTINENTAL
PIMA CO DEQ - PIMA COUNTY DEPT OF ENVIRONMENTAL QUALITY



USA.gov is the U.S. government's official web portal to all federal, state and local government web resources and services.